Precipitable_Water
0.22 0.15 0.13 0.14 0.17 0.20 0.23 0.22 0.25 0.28 0.39 0.44 0.48 0.46 0.70 0.80 0.81 0.80 0.73 0.70 0.72 0.77 0.95 1.05 1.14 1.21 1.19 1.15 1.13 1.22 1.23 1.24 1.15 1.11 1.02 0.91 0.82 0.82 0.75 0.71 0.69 0.62 0.58 0.58
0.19 0.15 0.16 0.18 0.20 0.24 0.24 0.22 0.20 0.27 0.39 0.46 0.42 0.38 0.67 0.64 0.72 0.72 0.68 0.66 0.69 0.78 0.91 0.98 1.05 1.09 1.12 1.10 1.12 1.16 1.19 1.13 1.14 1.10 1.13 1.12 1.06 1.01 0.92 0.82 0.66 0.62 0.56 0.54
0.15 0.18 0.19 0.19 0.21 0.21 0.21 0.20 0.22 0.21 0.29 0.49 0.43 0.37 0.55 0.84 0.80 0.84 0.74 0.67 0.73 0.79 0.82 0.85 0.88 0.92 0.98 0.99 1.04 1.07 1.08 1.11 1.13 1.14 1.17 1.14 1.12 1.03 0.92 0.83 0.72 0.62 0.57 0.56
0.16 0.20 0.20 0.19 0.18 0.20 0.16 0.23 0.25 0.25 0.40 0.37 0.46 0.26 0.31 0.63 0.64 0.79 0.76 0.65 0.71 0.82 0.79 0.80 0.82 0.85 0.94 0.99 1.07 1.12 1.12 1.06 1.03 0.95 0.89 0.85 0.82 0.86 0.81 0.76 0.75 0.68 0.66 0.57
0.16 0.16 0.18 0.20 0.19 0.20 0.20 0.25 0.25 0.26 0.33 0.43 0.38 0.32 0.31 0.52 0.53 0.60 0.64 0.68 0.72 0.80 0.77 0.78 0.83 0.88 0.94 1.03 1.05 1.09 1.08 1.03 1.00 0.92 0.80 0.76 0.69 0.66 0.69 0.67 0.64 0.63 0.65 0.64
0.19 0.22 0.20 0.20 0.22 0.21 0.23 0.25 0.24 0.28 0.29 0.30 0.30 0.30 0.23 0.48 0.56 0.61 0.65 0.68 0.69 0.82 0.79 0.80 0.85 0.86 0.87 0.95 1.04 1.03 0.98 0.97 0.95 0.89 0.83 0.77 0.67 0.54 0.50 0.50 0.46 0.47 0.47 0.49
0.19 0.19 0.21 0.22 0.19 0.21 0.23 0.25 0.21 0.17 0.18 0.18 0.30 0.27 0.26 0.30 0.51 0.61 0.57 0.68 0.75 0.79 0.78 0.76 0.72 0.74 0.78 0.83 0.92 0.92 0.87 0.83 0.80 0.77 0.75 0.72 0.63 0.57 0.52 0.48 0.44 0.37 0.40 0.40
0.18 0.15 0.19 0.21 0.18 0.17 0.20 0.23 0.21 0.16 0.15 0.19 0.30 0.22 0.24 0.33 0.37 0.49 0.59 0.69 0.79 0.78 0.80 0.76 0.72 0.73 0.74 0.79 0.86 0.87 0.80 0.76 0.78 0.75 0.74 0.72 0.64 0.56 0.49 0.45 0.40 0.36 0.34 0.35
0.19 0.17 0.22 0.22 0.21 0.21 0.16 0.17 0.23 0.24 0.24 0.22 0.24 0.26 0.31 0.37 0.41 0.42 0.55 0.62 0.70 0.75 0.76 0.75 0.74 0.72 0.69 0.71 0.83 0.85 0.79 0.75 0.73 0.72 0.70 0.66 0.60 0.53 0.49 0.46 0.44 0.43 0.38 0.35
0.22 0.20 0.23 0.22 0.22 0.19 0.19 0.19 0.19 0.23 0.21 0.18 0.23 0.25 0.25 0.34 0.37 0.41 0.50 0.56 0.68 0.69 0.72 0.74 0.74 0.67 0.65 0.67 0.77 0.81 0.77 0.72 0.75 0.75 0.69 0.62 0.58 0.54 0.52 0.48 0.45 0.43 0.37 0.36
0.22 0.22 0.23 0.22 0.19 0.16 0.16 0.19 0.20 0.22 0.27 0.23 0.20 0.22 0.38 0.36 0.38 0.39 0.43 0.44 0.51 0.66 0.73 0.75 0.70 0.64 0.63 0.64 0.69 0.76 0.74 0.72 0.73 0.74 0.68 0.61 0.56 0.55 0.53 0.49 0.45 0.42 0.39 0.35
0.25 0.23 0.21 0.22 0.21 0.21 0.18 0.17 0.21 0.20 0.19 0.26 0.28 0.29 0.45 0.48 0.50 0.45 0.38 0.42 0.42 0.63 0.71 0.71 0.67 0.64 0.60 0.61 0.67 0.70 0.71 0.70 0.73 0.73 0.67 0.62 0.59 0.55 0.49 0.45 0.42 0.40 0.37 0.36
0.38 0.25 0.19 0.21 0.24 0.21 0.18 0.16 0.16 0.21 0.29 0.25 0.24 0.24 0.45 0.43 0.42 0.44 0.37 0.37 0.43 0.47 0.65 0.67 0.65 0.63 0.61 0.63 0.66 0.69 0.69 0.68 0.70 0.68 0.64 0.59 0.53 0.49 0.45 0.41 0.41 0.39 0.36 0.37
0.42 0.31 0.24 0.20 0.22 0.23 0.19 0.18 0.17 0.18 0.20 0.21 0.24 0.32 0.38 0.39 0.37 0.39 0.38 0.38 0.41 0.48 0.56 0.61 0.61 0.61 0.62 0.63 0.65 0.67 0.66 0.68 0.69 0.66 0.63 0.57 0.52 0.48 0.44 0.38 0.36 0.36 0.37 0.34
0.41 0.28 0.26 0.27 0.26 0.27 0.24 0.21 0.18 0.17 0.18 0.20 0.21 0.27 0.36 0.38 0.37 0.34 0.35 0.38 0.45 0.46 0.54 0.57 0.59 0.59 0.60 0.63 0.66 0.66 0.66 0.66 0.67 0.64 0.60 0.55 0.49 0.41 0.35 0.34 0.37 0.34 0.33 0.30
0.35 0.28 0.31 0.26 0.27 0.26 0.27 0.28 0.22 0.20 0.19 0.22 0.24 0.28 0.31 0.42 0.41 0.37 0.38 0.40 0.48 0.50 0.52 0.55 0.58 0.59 0.59 0.63 0.63 0.64 0.63 0.63 0.62 0.57 0.54 0.52 0.41 0.33 0.31 0.32 0.30 0.29 0.29 0.29
0.31 0.27 0.29 0.22 0.25 0.24 0.21 0.26 0.24 0.21 0.20 0.23 0.21 0.28 0.37 0.35 0.34 0.36 0.35 0.44 0.44 0.46 0.50 0.52 0.55 0.58 0.61 0.62 0.64 0.62 0.60 0.58 0.56 0.54 0.54 0.48 0.36 0.28 0.28 0.28 0.27 0.27 0.27 0.30
0.31 0.29 0.27 0.22 0.25 0.17 0.21 0.28 0.27 0.26 0.25 0.23 0.25 0.26 0.33 0.36 0.38 0.37 0.40 0.46 0.44 0.44 0.49 0.53 0.56 0.59 0.62 0.65 0.65 0.63 0.56 0.53 0.52 0.52 0.50 0.46 0.32 0.28 0.27 0.26 0.26 0.27 0.28 0.29
0.36 0.34 0.26 0.20 0.19 0.25 0.24 0.25 0.24 0.24 0.26 0.29 0.24 0.26 0.28 0.33 0.35 0.35 0.42 0.51 0.49 0.46 0.47 0.52 0.56 0.59 0.62 0.61 0.61 0.57 0.53 0.51 0.50 0.48 0.47 0.45 0.31 0.27 0.25 0.25 0.26 0.28 0.28 0.29
0.34 0.37 0.31 0.26 0.19 0.17 0.22 0.29 0.33 0.31 0.21 0.32 0.34 0.31 0.29 0.30 0.27 0.32 0.48 0.49 0.53 0.49 0.50 0.51 0.56 0.60 0.60 0.59 0.58 0.55 0.51 0.48 0.46 0.46 0.45 0.45 0.31 0.26 0.25 0.25 0.26 0.29 0.29 0.30
0.26 0.30 0.26 0.26 0.23 0.20 0.41 0.44 0.42 0.23 0.22 0.31 0.39 0.40 0.39 0.35 0.33 0.40 0.49 0.46 0.53 0.52 0.51 0.54 0.55 0.52 0.55 0.59 0.58 0.52 0.49 0.44 0.47 0.47 0.45 0.44 0.31 0.27 0.27 0.27 0.28 0.29 0.29 0.30
0.27 0.27 0.26 0.27 0.24 0.21 0.50 0.47 0.37 0.49 0.48 0.47 0.43 0.44 0.45 0.48 0.44 0.46 0.51 0.52 0.56 0.57 0.54 0.53 0.53 0.53 0.56 0.57 0.53 0.48 0.45 0.47 0.48 0.46 0.44 0.42 0.32 0.29 0.30 0.29 0.29 0.29 0.29 0.29
0.26 0.31 0.28 0.33 0.35 0.47 0.51 0.54 0.61 0.59 0.50 0.47 0.44 0.42 0.46 0.51 0.52 0.49 0.47 0.47 0.53 0.59 0.54 0.53 0.52 0.52 0.56 0.57 0.53 0.48 0.48 0.48 0.47 0.45 0.42 0.41 0.34 0.29 0.30 0.30 0.28 0.29 0.29 0.29
0.28 0.39 0.33 0.35 0.40 0.47 0.51 0.57 0.60 0.60 0.55 0.50 0.49 0.46 0.46 0.47 0.52 0.49 0.46 0.50 0.57 0.61 0.53 0.54 0.53 0.50 0.50 0.54 0.53 0.52 0.52 0.50 0.47 0.43 0.42 0.41 0.35 0.28 0.31 0.32 0.31 0.29 0.28 0.28
0.27 0.32 0.32 0.34 0.38 0.41 0.47 0.53 0.57 0.61 0.61 0.55 0.51 0.50 0.48 0.50 0.52 0.49 0.46 0.56 0.56 0.61 0.55 0.53 0.51 0.50 0.49 0.53 0.53 0.54 0.54 0.52 0.47 0.44 0.43 0.41 0.38 0.30 0.28 0.31 0.31 0.29 0.30 0.30
0.35 0.31 0.26 0.25 0.36 0.39 0.41 0.51 0.58 0.59 0.59 0.61 0.53 0.51 0.52 0.54 0.54 0.54 0.48 0.50 0.55 0.56 0.55 0.51 0.51 0.49 0.52 0.53 0.53 0.55 0.57 0.54 0.50 0.45 0.43 0.42 0.40 0.35 0.29 0.30 0.31 0.35 0.34 0.33
Wind_Speed
31 28 33 34 33 30 28 28 27 26 25 25 23 24 22 20 21 21 21 21 19 20 20 20 20 20 18 15 13 14 11 18 16 20 20 19 19 17 15 14 13 13 13 13
27 34 31 30 31 31 31 29 29 25 26 26 25 25 24 24 23 24 22 21 20 20 20 20 21 21 18 16 15 14 14 12 12 13 17 18 19 20 19 15 13 14 14 14
32 29 31 30 30 32 33 31 28 29 26 28 24 26 25 28 24 24 23 22 21 21 21 20 20 19 18 18 16 15 14 13 13 13 14 15 15 16 20 18 18 16 15 14
31 29 31 33 32 31 31 31 25 26 25 23 24 22 29 28 24 23 22 22 23 22 21 21 20 20 18 17 17 16 15 14 12 11 9 9 10 11 12 12 13 12 13 12
34 31 29 34 31 30 29 29 28 25 28 24 27 25 24 30 28 26 24 22 24 24 23 22 21 20 19 17 17 16 16 15 15 13 12 11 10 11 11 12 13 14 14 13
33 31 30 28 30 29 26 25 27 27 24 25 29 26 28 26 26 26 25 23 25 25 24 23 22 20 19 18 18 17 17 16 16 15 15 13 12 12 11 11 11 11 10 8
32 33 29 27 30 28 27 27 22 25 27 25 27 28 24 28 28 29 26 25 26 27 25 24 22 21 21 20 19 18 18 17 16 16 15 15 14 13 12 12 12 11 11 11
29 32 34 28 32 30 30 30 23 29 27 24 24 29 29 25 24 26 26 26 26 26 26 25 23 22 21 21 20 19 19 18 17 16 16 16 15 14 13 13 12 11 10 10
29 32 33 29 27 31 31 32 29 22 24 23 24 26 25 19 25 20 26 27 28 26 27 26 24 23 22 21 21 20 20 18 18 18 17 17 16 15 14 14 13 12 11 10
30 22 30 32 28 32 31 29 29 26 19 26 23 26 24 22 21 22 23 23 29 29 27 26 24 23 22 22 21 20 20 18 18 18 18 17 17 16 15 14 13 12 11 10
33 27 23 28 31 32 33 29 31 27 23 20 20 21 13 27 23 23 24 25 27 31 29 26 24 23 22 21 21 21 20 18 17 17 17 17 17 16 16 15 14 14 12 11
29 27 26 28 31 30 33 32 30 25 32 26 18 18 8 16 21 21 23 26 24 25 29 27 24 23 23 21 21 21 20 19 18 17 17 17 16 16 16 15 15 14 13 12
18 27 27 27 25 30 32 35 34 33 21 26 21 20 14 13 16 18 19 23 25 25 27 26 25 24 23 22 21 21 20 19 18 17 17 17 16 16 16 16 15 14 14 13
21 24 28 29 28 28 30 33 33 32 29 28 29 25 24 20 19 17 17 21 24 26 26 26 25 24 24 22 22 21 21 19 18 17 17 16 16 16 16 16 15 14 14 13
17 25 28 29 31 24 28 31 34 33 34 31 30 31 26 23 21 21 19 21 24 25 25 25 25 25 25 23 22 22 21 20 19 18 17 16 16 16 16 17 16 15 13 12
18 23 24 26 30 31 26 26 31 32 34 32 32 30 30 24 23 22 21 20 22 24 25 25 25 25 25 24 23 22 22 21 20 19 17 16 16 16 17 18 17 16 15 13
20 19 21 28 30 31 30 29 27 31 34 33 32 30 27 27 28 25 24 23 22 23 24 26 26 25 25 24 23 22 22 21 20 19 18 17 17 18 19 18 18 17 15 14
20 21 23 23 25 34 33 30 29 27 28 33 30 30 30 28 25 27 24 25 23 22 24 25 25 25 24 24 24 23 23 22 21 21 20 19 19 19 20 19 18 17 16 15
24 20 22 23 25 24 32 34 29 29 27 25 33 31 28 29 29 24 27 27 24 24 24 25 26 25 25 25 25 24 23 22 22 22 21 20 20 21 21 20 19 18 17 16
25 22 22 20 23 23 29 23 25 26 29 25 21 22 29 28 28 26 26 27 26 24 24 24 24 24 25 25 25 25 24 23 23 23 23 21 22 23 22 21 20 19 18 17
22 21 24 23 21 25 14 20 21 26 28 26 21 21 22 25 29 26 24 27 28 26 26 25 25 25 26 26 26 25 25 24 24 24 23 22 23 23 23 22 21 20 19 18
18 18 18 21 22 23 14 17 16 18 22 23 26 24 23 21 25 27 22 27 26 26 26 26 26 25 25 26 26 25 25 24 24 24 24 23 24 24 23 23 22 21 20 19
7 10 14 12 14 15 14 13 15 16 18 20 24 25 24 24 25 27 28 22 29 29 25 27 26 25 25 26 26 26 25 25 25 25 25 24 24 25 24 23 23 22 21 20
6 8 12 12 8 9 9 14 9 16 17 18 21 21 23 25 26 29 26 23 28 28 27 27 27 26 25 26 27 27 27 26 25 25 25 24 24 25 24 24 24 23 22 21
11 10 11 12 10 12 10 12 15 16 15 15 17 19 21 22 25 27 26 25 28 28 26 26 27 26 26 26 27 27 28 27 26 26 25 25 24 25 25 25 25 24 24 24
11 10 11 13 13 13 13 13 12 16 16 13 14 15 17 18 20 25 25 24 27 28 28 27 26 25 25 25 27 28 28 28 27 26 26 26 25 25 26 25 24 24 25 24
Wind_Direction
215 214 215 214 215 218 214 215 219 217 206 209 216 218 211 212 212 216 218 220 223 226 225 220 220 221 226 233 237 231 228 223 240 236 237 243 245 244 250 253 258 264 267 268
212 219 216 217 216 218 222 215 220 224 212 212 217 222 211 217 216 219 221 224 224 221 219 217 220 222 226 229 233 234 226 227 235 234 240 243 248 245 245 250 260 266 268 269
217 220 218 216 215 216 220 225 219 220 224 211 218 223 212 208 212 216 222 222 222 220 211 214 213 218 223 227 229 229 233 236 239 244 246 247 248 250 244 254 259 261 265 268
219 220 211 216 219 217 218 219 226 217 197 209 215 224 224 209 216 218 218 221 218 215 210 213 216 220 223 225 226 229 234 235 235 241 242 244 245 241 243 247 247 266 262 262
216 215 216 216 215 218 220 217 222 221 214 216 214 228 234 212 218 219 219 221 216 213 213 215 218 222 225 224 225 230 232 234 237 242 242 243 245 249 256 255 258 262 265 261
221 218 217 219 218 217 215 218 217 222 224 221 221 225 227 215 218 223 220 216 217 213 214 218 220 223 225 226 228 231 232 234 239 242 244 246 247 253 256 252 255 257 258 265
216 220 216 219 217 214 213 212 207 215 219 227 219 230 225 227 223 220 221 218 217 216 215 218 218 222 225 226 227 230 232 235 239 241 243 244 246 249 251 251 255 257 258 264
214 216 212 210 215 211 214 213 213 213 218 223 225 226 230 227 220 221 222 217 217 217 219 218 221 225 227 228 227 231 233 234 237 240 242 243 244 246 249 251 250 253 257 258
216 221 215 214 214 214 211 217 220 222 225 226 227 231 229 232 221 228 217 215 218 218 219 218 222 225 227 227 229 231 233 235 237 239 240 241 241 244 245 245 246 248 249 249
223 225 217 218 216 218 221 215 216 219 220 227 230 227 224 217 222 219 218 220 219 219 217 218 222 224 227 227 228 230 233 233 236 236 238 238 240 241 242 241 241 241 241 238
222 226 227 215 211 212 215 220 216 222 225 228 229 233 247 220 223 224 223 226 225 220 215 218 220 222 225 224 225 228 230 230 231 234 237 237 238 237 239 238 236 235 235 234
220 219 224 225 213 214 218 219 215 216 221 226 228 228 238 215 222 222 228 220 221 213 216 215 219 220 220 221 222 225 228 227 230 232 233 233 234 235 233 234 233 232 229 227
222 215 217 221 218 209 215 219 220 221 221 225 228 225 217 217 221 215 221 223 216 216 214 213 217 216 217 219 222 224 225 226 227 227 229 229 231 232 232 229 227 225 222 223
219 220 224 218 218 212 214 220 220 220 220 224 228 230 230 223 226 225 225 221 217 215 212 214 216 216 217 219 221 221 223 223 223 224 224 226 228 229 227 222 217 219 217 217
233 228 225 228 225 223 221 222 222 221 225 223 227 231 231 229 232 230 228 225 216 211 212 215 216 215 217 218 220 220 221 219 219 219 220 224 227 227 220 214 211 210 211 214
237 227 233 229 230 230 236 235 222 226 222 228 226 229 228 223 226 225 221 220 214 215 217 217 216 216 215 216 217 218 217 216 215 216 219 223 225 220 213 210 210 211 214 217
232 229 231 231 229 232 234 224 230 224 226 224 228 226 225 227 229 225 230 218 220 218 218 216 215 213 213 214 215 214 213 213 214 217 220 222 220 214 209 207 208 211 216 217
230 232 226 229 231 229 229 225 229 235 233 229 232 231 227 228 229 226 224 217 220 220 219 215 214 211 213 212 212 212 213 214 216 218 220 220 217 211 208 208 210 214 217 219
224 225 227 226 227 235 229 226 229 231 237 235 230 233 231 228 230 232 218 218 221 221 219 216 213 213 213 213 212 212 215 217 218 219 219 219 216 211 208 210 214 216 218 221
216 222 226 227 225 226 228 229 241 242 239 233 236 235 226 228 224 224 212 220 217 218 217 214 212 212 213 213 213 215 218 219 220 219 218 217 215 212 211 214 216 218 220 223
213 218 222 224 227 229 240 247 238 225 235 235 238 238 236 233 227 219 219 225 218 219 217 214 214 215 216 215 216 219 220 221 219 218 217 217 215 213 215 216 218 219 222 225
205 215 216 221 224 226 252 229 227 240 241 236 235 234 236 236 222 215 223 206 214 213 214 216 216 216 216 215 216 218 219 218 218 216 216 217 216 215 217 218 219 221 223 226
192 212 215 216 216 227 232 233 239 239 238 239 237 233 232 230 222 218 214 232 215 213 216 215 216 217 218 217 217 218 217 216 216 216 216 217 217 217 219 220 221 223 225 228
228 220 211 228 227 216 217 230 251 239 246 242 236 234 232 227 223 215 221 224 210 214 217 216 216 218 219 218 219 219 217 217 216 216 217 218 218 219 221 222 224 226 227 230
240 231 231 228 239 236 245 258 253 240 243 245 237 232 230 226 224 220 220 214 216 215 216 218 219 221 221 219 219 218 217 217 217 217 218 220 221 220 223 224 227 229 231 233
228 225 226 229 242 236 256 262 257 235 234 241 234 227 225 222 223 217 214 215 216 217 217 218 220 221 221 220 219 219 218 218 218 220 221 222 223 223 225 225 228 232 233 235